Regional Weather Roundup
Issued by NWS Sioux Falls, SD

Home | Current Version | Previous Version | Text Only | Print | Product List | Glossary On
Versions: 1 2 3 4 5 6 7 8 9 10 11 12 13 14 15 16 17 18 19 20 21 22 23 24 25 26 27 28 29 30 31 32 33 34 35 36 37 38 39 40 41 42 43 44 45 46 47 48 49 50
000
ASUS43 KFSD 010810
RWRFSD

WEATHER ROUNDUP FOR SE SOUTH DAKOTA/SW MINNESOTA/NW IOWA
NATIONAL WEATHER SERVICE SIOUX FALLS SD
300 AM CDT WED OCT 01 2014

NOTE: "FAIR" INDICATES FEW OR NO CLOUDS BELOW 12,000 FEET WITH NO
SIGNIFICANT WEATHER AND OR OBSTRUCTIONS TO VISIBILITY.


SDZ038>040-050-052>070-010900-
SOUTHEAST SOUTH DAKOTA

CITY           SKY/WX    TMP DP  RH WIND       PRES   REMARKS
CHAMBERLAIN    MOCLDY    51  47  87 CALM      29.68S
HURON          CLOUDY    62  60  93 SW5       29.68R
MADISON        CLOUDY    61  61 100 S16G23    29.72S
MITCHELL       PTCLDY    62  60  93 S12       29.69R
SIOUX FALLS    CLOUDY    62  60  93 S13       29.74S
WINNER         FAIR      56  46  69 NW3       29.69F
YANKTON        CLOUDY    64  61  88 S9        29.72S
$$

MNZ071-072-080-081-089-090-097-098-010900-
SOUTHWEST MINNESOTA

CITY           SKY/WX    TMP DP  RH WIND       PRES   REMARKS
FAIRMONT       MOCLDY    57  52  82 SE13      29.80S
JACKSON        CLOUDY    59  55  88 S12       29.80S
LUVERNE        CLOUDY    63  59  88 SE8       29.75F FOG
MARSHALL       CLOUDY    63  55  77 S17G25    29.72F
MONTEVIDEO     CLOUDY    61  57  88 S8        29.73F
PIPESTONE      CLOUDY    61  59  94 S13G18    29.75S FOG
REDWOOD FALLS  CLOUDY    59  57  93 SE12      29.77S
TRACY          CLOUDY    62  59  92 S14       29.75F
WINDOM         CLOUDY    61  57  88 SE12      29.79S
WORTHINGTON    CLOUDY    61  57  88 S16       29.78F
$$

IAZ001>003-012>014-020>022-031-032-NEZ013-014-SDZ071-010900-
NORTHWEST IOWA

CITY           SKY/WX    TMP DP  RH WIND       PRES   REMARKS
CHEROKEE       CLOUDY    60  59  98 SE9       29.76F
DENISON        CLOUDY    63  63 100 SE7G14    29.77R FOG
ESTHERVILLE    CLOUDY    57  55  93 S14       29.79S
LE MARS          N/A     63  61  94 VRB7G15   29.74F
ORANGE CITY    CLOUDY    63  59  88 SE8       29.75F
SHELDON        CLOUDY    61  59  94 SE10G16   29.75F
SIOUX CITY     CLOUDY    63  61  93 SE5       29.74S
SPENCER        CLOUDY    58  56  93 S10       29.79S
STORM LAKE     CLOUDY    59  59 100 SE15G21   29.78F FOG
$$

ABBREVIATIONS USED IN REMARKS
   TC - TEMPERATURE IN CELSIUS
  WCI - WIND CHILL INDEX
   HX - HEAT INDEX
  VSB - VISIBILITY




USA.gov is the U.S. government's official web portal to all federal, state and local government web resources and services.